Time,TemperatureF,DewpointF,PressureIn,WindDirection,WindDirectionDegrees,WindSpeedMPH,WindSpeedGustMPH,Humidity,HourlyPrecipIn,Conditions,Clouds,dailyrainin,SoftwareType,DateUTC
2013-04-18 00:02:00,33.0,33.0,29.93,ENE,68,3.0,10.0,99,0.00,,,0.28,,2013-04-18 05:02:00,
2013-04-18 00:12:00,33.0,33.0,29.94,ENE,59,3.0,5.0,99,0.00,,,0.28,,2013-04-18 05:12:00,
2013-04-18 00:22:00,33.0,33.0,29.94,ENE,59,3.0,5.0,99,0.00,,,0.28,,2013-04-18 05:22:00,
2013-04-18 00:32:00,33.0,33.0,29.93,ENE,63,4.0,10.0,99,0.00,,,0.28,,2013-04-18 05:32:00,
2013-04-18 00:42:00,33.0,33.0,29.94,NE,37,0.0,7.0,99,0.00,,,0.30,,2013-04-18 05:42:00,
2013-04-18 00:52:00,33.0,33.0,29.94,NE,37,0.0,7.0,99,0.00,,,0.30,,2013-04-18 05:52:00,
2013-04-18 01:02:00,32.0,32.0,29.93,East,99,4.0,8.0,99,0.04,,,0.32,,2013-04-18 06:02:00,
2013-04-18 01:12:00,33.0,33.0,29.91,ENE,68,4.0,6.0,99,0.04,,,0.32,,2013-04-18 06:12:00,
2013-04-18 01:22:00,33.0,33.0,29.91,ENE,68,4.0,6.0,99,0.04,,,0.32,,2013-04-18 06:22:00,
2013-04-18 01:32:00,33.0,33.0,29.90,ENE,70,4.0,9.0,99,0.06,,,0.34,,2013-04-18 06:32:00,
2013-04-18 01:42:00,32.0,32.0,29.88,ESE,122,0.0,11.0,99,0.04,,,0.34,,2013-04-18 06:42:00,
2013-04-18 01:52:00,32.0,32.0,29.88,ESE,122,0.0,11.0,99,0.04,,,0.34,,2013-04-18 06:52:00,
2013-04-18 02:02:00,32.0,32.0,29.88,East,101,4.0,13.0,99,0.02,,,0.34,,2013-04-18 07:02:00,
2013-04-18 02:12:00,32.0,32.0,29.86,East,98,8.0,15.0,99,0.02,,,0.34,,2013-04-18 07:12:00,
2013-04-18 02:22:00,32.0,32.0,29.86,East,98,8.0,15.0,99,0.02,,,0.34,,2013-04-18 07:22:00,
2013-04-18 02:32:00,32.0,32.0,29.84,NE,43,9.0,12.0,99,0.00,,,0.34,,2013-04-18 07:32:00,
2013-04-18 02:42:00,32.0,32.0,29.83,ESE,105,7.0,11.0,99,0.00,,,0.34,,2013-04-18 07:42:00,
2013-04-18 02:52:00,32.0,32.0,29.83,ESE,105,7.0,11.0,99,0.00,,,0.34,,2013-04-18 07:52:00,
2013-04-18 03:02:00,32.0,32.0,29.83,East,101,7.0,8.0,99,0.00,,,0.34,,2013-04-18 08:02:00,
2013-04-18 03:12:00,32.0,32.0,29.84,East,95,3.0,11.0,99,0.00,,,0.34,,2013-04-18 08:12:00,
2013-04-18 03:22:00,32.0,32.0,29.84,East,95,3.0,11.0,99,0.00,,,0.34,,2013-04-18 08:22:00,
2013-04-18 03:32:00,32.0,32.0,29.85,East,92,0.0,13.0,99,0.00,,,0.34,,2013-04-18 08:32:00,
2013-04-18 03:42:00,32.0,32.0,29.84,NE,49,0.0,3.0,99,0.00,,,0.34,,2013-04-18 08:42:00,
2013-04-18 03:52:00,32.0,32.0,29.84,NE,49,0.0,3.0,99,0.00,,,0.34,,2013-04-18 08:52:00,
2013-04-18 04:02:00,32.0,32.0,29.85,North,5,4.0,4.0,99,0.00,,,0.34,,2013-04-18 09:02:00,
2013-04-18 04:12:00,32.0,32.0,29.83,East,81,0.0,3.0,99,0.00,,,0.34,,2013-04-18 09:12:00,
2013-04-18 04:22:00,32.0,32.0,29.83,East,81,0.0,3.0,99,0.00,,,0.34,,2013-04-18 09:22:00,
2013-04-18 04:32:00,32.0,32.0,29.83,ENE,57,3.0,6.0,99,0.00,,,0.34,,2013-04-18 09:32:00,
2013-04-18 04:42:00,32.0,32.0,29.84,NE,45,0.0,5.0,99,0.00,,,0.34,,2013-04-18 09:42:00,
2013-04-18 04:53:00,32.0,32.0,29.84,NE,45,0.0,5.0,99,0.00,,,0.34,,2013-04-18 09:53:00,
2013-04-18 05:03:00,31.0,31.0,29.85,East,87,0.0,3.0,99,0.10,,,0.44,,2013-04-18 10:03:00,
2013-04-18 05:12:00,31.0,31.0,29.85,East,92,4.0,8.0,99,0.10,,,0.44,,2013-04-18 10:12:00,
2013-04-18 05:23:00,31.0,31.0,29.85,East,92,4.0,8.0,99,0.10,,,0.44,,2013-04-18 10:23:00,
2013-04-18 05:32:00,31.0,31.0,29.85,NNE,19,2.0,6.0,99,0.10,,,0.44,,2013-04-18 10:32:00,
2013-04-18 05:42:00,31.0,31.0,29.81,NNE,22,0.0,3.0,99,0.00,,,0.44,,2013-04-18 10:42:00,
2013-04-18 05:52:00,31.0,31.0,29.81,NNE,22,0.0,3.0,99,0.00,,,0.44,,2013-04-18 10:52:00,
2013-04-18 06:02:00,31.0,31.0,29.80,NE,43,6.0,6.0,99,0.00,,,0.44,,2013-04-18 11:02:00,
2013-04-18 06:12:00,31.0,31.0,29.80,East,91,3.0,9.0,99,0.00,,,0.44,,2013-04-18 11:12:00,
2013-04-18 06:22:00,31.0,31.0,29.80,East,91,3.0,9.0,99,0.00,,,0.44,,2013-04-18 11:22:00,
2013-04-18 06:32:00,31.0,31.0,29.77,North,2,0.0,11.0,99,0.00,,,0.44,,2013-04-18 11:32:00,
2013-04-18 06:42:00,31.0,31.0,29.77,East,95,0.0,13.0,99,0.00,,,0.44,,2013-04-18 11:42:00,
2013-04-18 06:52:00,31.0,31.0,29.77,East,95,0.0,13.0,99,0.00,,,0.44,,2013-04-18 11:52:00,
2013-04-18 07:02:00,31.0,31.0,29.77,East,80,3.0,10.0,99,0.00,,,0.44,,2013-04-18 12:02:00,
2013-04-18 07:12:00,30.0,30.0,29.77,East,84,8.0,13.0,99,0.00,,,0.44,,2013-04-18 12:12:00,
2013-04-18 07:22:00,30.0,30.0,29.77,East,84,8.0,13.0,99,0.00,,,0.44,,2013-04-18 12:22:00,
2013-04-18 07:32:00,31.0,31.0,29.78,SE,125,0.0,9.0,99,0.00,,,0.44,,2013-04-18 12:32:00,
2013-04-18 07:42:00,30.0,30.0,29.74,ENE,71,5.0,13.0,99,0.00,,,0.44,,2013-04-18 12:42:00,
2013-04-18 07:52:00,30.0,30.0,29.74,ENE,71,5.0,13.0,99,0.00,,,0.44,,2013-04-18 12:52:00,
2013-04-18 08:02:00,30.0,30.0,29.78,ENE,63,6.0,15.0,99,0.00,,,0.44,,2013-04-18 13:02:00,
2013-04-18 08:12:00,30.0,30.0,29.78,NE,54,0.0,9.0,99,0.00,,,0.44,,2013-04-18 13:12:00,
2013-04-18 08:22:00,30.0,30.0,29.78,NE,54,0.0,9.0,99,0.00,,,0.44,,2013-04-18 13:22:00,
2013-04-18 08:32:00,30.0,30.0,29.76,ENE,60,10.0,14.0,99,0.00,,,0.44,,2013-04-18 13:32:00,
2013-04-18 08:42:00,30.0,30.0,29.75,ESE,106,5.0,13.0,99,0.00,,,0.44,,2013-04-18 13:42:00,
2013-04-18 08:52:00,30.0,30.0,29.75,ESE,106,5.0,13.0,99,0.00,,,0.44,,2013-04-18 13:52:00,
2013-04-18 09:02:00,30.0,30.0,29.73,SE,133,8.0,12.0,99,0.00,,,0.44,,2013-04-18 14:02:00,
2013-04-18 09:12:00,30.0,30.0,29.71,East,84,15.0,16.0,99,0.00,,,0.44,,2013-04-18 14:12:00,
2013-04-18 09:22:00,30.0,30.0,29.71,East,84,15.0,16.0,99,0.00,,,0.44,,2013-04-18 14:22:00,
2013-04-18 09:32:00,30.0,30.0,29.69,SE,143,9.0,15.0,99,0.00,,,0.44,,2013-04-18 14:32:00,
2013-04-18 09:42:00,31.0,31.0,29.70,NNE,33,11.0,22.0,99,0.00,,,0.44,,2013-04-18 14:42:00,
2013-04-18 09:52:00,31.0,31.0,29.70,NNE,33,11.0,22.0,99,0.00,,,0.44,,2013-04-18 14:52:00,
2013-04-18 10:02:00,31.0,31.0,29.71,NE,36,5.0,12.0,99,0.00,,,0.44,,2013-04-18 15:02:00,
2013-04-18 10:12:00,31.0,31.0,29.71,NE,36,5.0,12.0,99,0.00,,,0.44,,2013-04-18 15:12:00,
2013-04-18 10:22:00,31.0,31.0,29.72,SE,127,8.0,16.0,99,0.00,,,0.44,,2013-04-18 15:22:00,
2013-04-18 10:33:00,31.0,31.0,29.69,ENE,75,0.0,16.0,99,0.00,,,0.44,,2013-04-18 15:33:00,
2013-04-18 10:42:00,31.0,31.0,29.70,ENE,63,4.0,11.0,99,0.00,,,0.44,,2013-04-18 15:42:00,
2013-04-18 10:52:00,31.0,31.0,29.70,ENE,63,4.0,11.0,99,0.00,,,0.44,,2013-04-18 15:52:00,
2013-04-18 11:03:00,32.0,32.0,29.70,East,97,5.0,9.0,99,0.00,,,0.44,,2013-04-18 16:03:00,
2013-04-18 11:13:00,31.0,31.0,29.68,NE,56,4.0,11.0,99,0.00,,,0.44,,2013-04-18 16:13:00,
2013-04-18 11:23:00,31.0,31.0,29.68,NE,56,4.0,11.0,99,0.00,,,0.44,,2013-04-18 16:23:00,
2013-04-18 11:33:00,31.0,31.0,29.66,ESE,105,5.0,16.0,99,0.00,,,0.44,,2013-04-18 16:33:00,
2013-04-18 11:42:00,31.0,31.0,29.67,East,98,0.0,6.0,99,0.00,,,0.44,,2013-04-18 16:42:00,
2013-04-18 11:53:00,31.0,31.0,29.67,East,98,0.0,6.0,99,0.00,,,0.44,,2013-04-18 16:53:00,
2013-04-18 12:02:00,31.0,31.0,29.69,ENE,73,0.0,6.0,99,0.00,,,0.44,,2013-04-18 17:02:00,
2013-04-18 12:12:00,31.0,31.0,29.67,NNE,25,0.0,9.0,99,0.00,,,0.44,,2013-04-18 17:12:00,
2013-04-18 12:22:00,31.0,31.0,29.67,NNE,25,0.0,9.0,99,0.00,,,0.44,,2013-04-18 17:22:00,
2013-04-18 12:33:00,30.0,30.0,29.65,ENE,63,4.0,10.0,99,0.00,,,0.44,,2013-04-18 17:33:00,
2013-04-18 12:42:00,31.0,31.0,29.66,ENE,70,0.0,12.0,99,0.00,,,0.44,,2013-04-18 17:42:00,
2013-04-18 12:52:00,31.0,31.0,29.66,ENE,70,0.0,12.0,99,0.00,,,0.44,,2013-04-18 17:52:00,
2013-04-18 13:02:00,31.0,31.0,29.66,ENE,61,0.0,9.0,99,0.00,,,0.44,,2013-04-18 18:02:00,
2013-04-18 13:12:00,31.0,31.0,29.66,NNE,33,3.0,12.0,99,0.00,,,0.44,,2013-04-18 18:12:00,
2013-04-18 13:22:00,31.0,31.0,29.66,NNE,33,3.0,12.0,99,0.00,,,0.44,,2013-04-18 18:22:00,
2013-04-18 13:32:00,30.0,30.0,29.63,East,80,5.0,12.0,99,0.00,,,0.44,,2013-04-18 18:32:00,
2013-04-18 13:42:00,30.0,30.0,29.61,NE,45,9.0,12.0,99,0.00,,,0.44,,2013-04-18 18:42:00,
2013-04-18 13:52:00,30.0,30.0,29.61,NE,45,9.0,12.0,99,0.00,,,0.44,,2013-04-18 18:52:00,
2013-04-18 14:02:00,31.0,31.0,29.63,NNE,23,5.0,8.0,99,0.00,,,0.44,,2013-04-18 19:02:00,
2013-04-18 14:12:00,31.0,31.0,29.63,NNE,23,5.0,8.0,99,0.00,,,0.44,,2013-04-18 19:12:00,
2013-04-18 14:22:00,31.0,31.0,29.63,NNE,23,5.0,8.0,99,0.00,,,0.44,,2013-04-18 19:22:00,
2013-04-18 14:32:00,30.0,30.0,29.59,NE,36,3.0,12.0,99,0.00,,,0.44,,2013-04-18 19:32:00,
2013-04-18 14:42:00,31.0,31.0,29.64,ENE,63,5.0,6.0,99,0.00,,,0.44,,2013-04-18 19:42:00,
2013-04-18 14:53:00,31.0,31.0,29.64,ENE,63,5.0,6.0,99,0.00,,,0.44,,2013-04-18 19:53:00,
2013-04-18 15:02:00,31.0,31.0,29.60,NE,39,7.0,9.0,99,0.00,,,0.44,,2013-04-18 20:02:00,
2013-04-18 15:12:00,30.0,30.0,29.57,NNE,26,3.0,13.0,99,0.00,,,0.44,,2013-04-18 20:12:00,
2013-04-18 15:22:00,30.0,30.0,29.57,NNE,26,3.0,13.0,99,0.00,,,0.44,,2013-04-18 20:22:00,
2013-04-18 15:32:00,30.0,30.0,29.59,ENE,57,9.0,9.0,99,0.00,,,0.44,,2013-04-18 20:32:00,
2013-04-18 15:42:00,30.0,30.0,29.59,NE,56,7.0,13.0,99,0.00,,,0.44,,2013-04-18 20:42:00,
2013-04-18 15:52:00,30.0,30.0,29.59,NE,56,7.0,13.0,99,0.00,,,0.44,,2013-04-18 20:52:00,
2013-04-18 16:02:00,30.0,30.0,29.59,North,358,6.0,13.0,99,0.00,,,0.44,,2013-04-18 21:02:00,
2013-04-18 16:12:00,30.0,30.0,29.57,SE,146,0.0,9.0,99,0.00,,,0.44,,2013-04-18 21:12:00,
2013-04-18 16:22:00,30.0,30.0,29.57,SE,146,0.0,9.0,99,0.00,,,0.44,,2013-04-18 21:22:00,
2013-04-18 16:32:00,30.0,30.0,29.56,NNE,28,3.0,14.0,99,0.00,,,0.44,,2013-04-18 21:32:00,
2013-04-18 16:43:00,30.0,30.0,29.56,ENE,67,5.0,10.0,99,0.00,,,0.44,,2013-04-18 21:43:00,
2013-04-18 16:53:00,30.0,30.0,29.56,ENE,67,5.0,10.0,99,0.00,,,0.44,,2013-04-18 21:53:00,
2013-04-18 17:02:00,30.0,30.0,29.56,ENE,67,5.0,10.0,99,0.00,,,0.44,,2013-04-18 22:02:00,
2013-04-18 17:13:00,30.0,30.0,29.55,East,85,0.0,10.0,99,0.00,,,0.42,,2013-04-18 22:13:00,
2013-04-18 17:22:00,30.0,30.0,29.55,East,85,0.0,10.0,99,0.00,,,0.42,,2013-04-18 22:22:00,
2013-04-18 17:32:00,30.0,30.0,29.53,NE,42,3.0,10.0,99,0.00,,,0.42,,2013-04-18 22:32:00,
2013-04-18 17:42:00,30.0,30.0,29.54,NE,46,5.0,11.0,99,0.00,,,0.42,,2013-04-18 22:42:00,
2013-04-18 17:52:00,30.0,30.0,29.54,NE,46,5.0,11.0,99,0.00,,,0.42,,2013-04-18 22:52:00,
2013-04-18 18:03:00,30.0,30.0,29.53,ESE,105,7.0,10.0,99,0.00,,,0.42,,2013-04-18 23:03:00,
2013-04-18 18:11:00,31.0,31.0,29.54,East,87,0.0,9.0,99,0.00,,,0.42,,2013-04-18 23:11:00,
2013-04-18 18:21:00,31.0,31.0,29.54,East,87,0.0,9.0,99,0.00,,,0.42,,2013-04-18 23:21:00,
2013-04-18 18:32:00,31.0,31.0,29.54,ENE,61,0.0,10.0,99,0.00,,,0.42,,2013-04-18 23:32:00,
2013-04-18 18:42:00,31.0,31.0,29.53,NE,47,0.0,7.0,99,0.00,,,0.42,,2013-04-18 23:42:00,
2013-04-18 18:52:00,31.0,31.0,29.53,NE,47,0.0,7.0,99,0.00,,,0.42,,2013-04-18 23:52:00,
2013-04-18 19:01:00,30.0,30.0,29.54,NNE,16,6.0,13.0,99,0.00,,,0.42,,2013-04-19 00:01:00,
2013-04-18 19:12:00,30.0,30.0,29.53,NNE,23,4.0,10.0,99,0.00,,,0.30,,2013-04-19 00:12:00,
2013-04-18 19:21:00,30.0,30.0,29.53,NNE,23,4.0,10.0,99,0.00,,,0.30,,2013-04-19 00:21:00,
2013-04-18 19:32:00,31.0,31.0,29.54,NNE,29,8.0,12.0,99,0.00,,,0.30,,2013-04-19 00:32:00,
2013-04-18 19:42:00,30.0,30.0,29.54,NE,37,8.0,9.0,99,0.00,,,0.30,,2013-04-19 00:42:00,
2013-04-18 19:52:00,30.0,30.0,29.54,NE,37,8.0,9.0,99,0.00,,,0.30,,2013-04-19 00:52:00,
2013-04-18 20:01:00,30.0,30.0,29.54,NNE,28,3.0,20.0,99,0.00,,,0.30,,2013-04-19 01:01:00,
2013-04-18 20:11:00,30.0,30.0,29.53,NNE,22,6.0,13.0,99,0.00,,,0.32,,2013-04-19 01:11:00,
2013-04-18 20:21:00,30.0,30.0,29.53,NNE,22,6.0,13.0,99,0.00,,,0.32,,2013-04-19 01:21:00,
2013-04-18 20:32:00,30.0,30.0,29.53,NNE,26,0.0,0.0,99,0.00,,,0.32,,2013-04-19 01:32:00,
2013-04-18 20:42:00,30.0,30.0,29.54,NNE,26,0.0,0.0,99,0.00,,,0.32,,2013-04-19 01:42:00,
2013-04-18 20:52:00,30.0,30.0,29.54,NNE,26,0.0,0.0,99,0.00,,,0.32,,2013-04-19 01:52:00,
2013-04-18 21:01:00,30.0,30.0,29.54,NNE,26,0.0,0.0,99,0.00,,,0.32,,2013-04-19 02:01:00,
2013-04-18 21:11:00,30.0,30.0,29.55,NNE,26,0.0,0.0,99,0.00,,,0.12,,2013-04-19 02:11:00,
2013-04-18 21:21:00,30.0,30.0,29.55,NNE,26,0.0,0.0,99,0.00,,,0.12,,2013-04-19 02:21:00,
2013-04-18 21:32:00,30.0,30.0,29.55,NNE,26,0.0,0.0,99,0.00,,,0.12,,2013-04-19 02:32:00,
2013-04-18 21:42:00,30.0,30.0,29.56,NNE,26,0.0,0.0,99,0.00,,,0.12,,2013-04-19 02:42:00,
2013-04-18 21:52:00,30.0,30.0,29.56,NNE,26,0.0,0.0,99,0.00,,,0.12,,2013-04-19 02:52:00,
2013-04-18 22:01:00,30.0,30.0,29.56,NNE,26,0.0,0.0,99,0.00,,,0.12,,2013-04-19 03:01:00,
2013-04-18 22:11:00,30.0,30.0,29.56,NNE,26,0.0,0.0,99,0.00,,,0.16,,2013-04-19 03:11:00,
2013-04-18 22:21:00,30.0,30.0,29.56,NNE,26,0.0,0.0,99,0.00,,,0.16,,2013-04-19 03:21:00,
2013-04-18 22:32:00,29.0,29.0,29.56,NNE,26,0.0,0.0,99,0.00,,,0.16,,2013-04-19 03:32:00,
2013-04-18 22:43:00,30.0,30.0,29.55,NNE,26,0.0,0.0,99,0.00,,,0.16,,2013-04-19 03:43:00,
2013-04-18 22:53:00,30.0,30.0,29.55,NNE,26,0.0,0.0,99,0.00,,,0.16,,2013-04-19 03:53:00,
2013-04-18 23:03:00,30.0,30.0,29.54,NNE,26,0.0,0.0,99,0.00,,,0.16,,2013-04-19 04:03:00,
2013-04-18 23:13:00,30.0,30.0,29.54,NNE,26,0.0,0.0,99,0.00,,,0.12,,2013-04-19 04:13:00,
2013-04-18 23:23:00,30.0,30.0,29.54,NNE,26,0.0,0.0,99,0.00,,,0.12,,2013-04-19 04:23:00,
2013-04-18 23:33:00,30.0,30.0,29.54,NNE,26,0.0,0.0,99,0.00,,,0.12,,2013-04-19 04:33:00,
2013-04-18 23:43:00,30.0,30.0,29.53,NNE,26,0.0,0.0,99,0.00,,,0.12,,2013-04-19 04:43:00,
2013-04-18 23:52:00,30.0,30.0,29.53,NNE,26,0.0,0.0,99,0.00,,,0.12,,2013-04-19 04:52:00,